GFSMW_prec_pwat_183.txt.gz
Precipitable_Water
0.59 0.74 0.79 0.84 0.91 1.00 0.98 0.93 0.84 0.80 0.75 0.68 0.65 0.64 0.61 0.62 0.62 0.60 0.58 0.55 0.53 0.50 0.47 0.46 0.47 0.48 0.46 0.47 0.47 0.47 0.45 0.43 0.45 0.43 0.45 0.52 0.57 0.53 0.49 0.46 0.44 0.42 0.40
0.57 0.66 0.74 0.81 0.87 0.94 0.95 0.91 0.85 0.82 0.77 0.71 0.71 0.69 0.67 0.67 0.67 0.66 0.63 0.61 0.57 0.53 0.50 0.48 0.48 0.48 0.48 0.48 0.48 0.47 0.45 0.47 0.49 0.44 0.43 0.37 0.45 0.50 0.46 0.48 0.42 0.41 0.41
0.52 0.60 0.65 0.75 0.84 0.89 0.90 0.90 0.89 0.87 0.81 0.79 0.76 0.73 0.73 0.71 0.67 0.66 0.63 0.61 0.58 0.54 0.51 0.49 0.48 0.49 0.49 0.48 0.49 0.50 0.48 0.45 0.47 0.47 0.42 0.36 0.33 0.37 0.46 0.44 0.43 0.40 0.41
0.52 0.61 0.66 0.70 0.79 0.85 0.93 0.95 0.95 0.92 0.85 0.81 0.77 0.72 0.69 0.65 0.67 0.66 0.66 0.64 0.62 0.55 0.53 0.51 0.50 0.50 0.50 0.49 0.49 0.51 0.50 0.48 0.43 0.46 0.46 0.44 0.42 0.35 0.32 0.38 0.39 0.36 0.37
0.46 0.53 0.61 0.70 0.77 0.85 0.89 0.93 0.95 0.93 0.90 0.85 0.82 0.78 0.73 0.72 0.72 0.69 0.66 0.65 0.62 0.56 0.52 0.52 0.51 0.50 0.49 0.53 0.56 0.55 0.51 0.48 0.44 0.42 0.41 0.39 0.41 0.38 0.31 0.26 0.28 0.31 0.32
0.44 0.49 0.58 0.66 0.72 0.82 0.90 0.97 0.94 0.91 0.91 0.89 0.87 0.81 0.75 0.73 0.70 0.68 0.65 0.62 0.58 0.55 0.51 0.51 0.51 0.52 0.56 0.58 0.55 0.51 0.46 0.43 0.40 0.38 0.35 0.31 0.28 0.26 0.25 0.22 0.22 0.19 0.22
0.46 0.48 0.52 0.57 0.62 0.70 0.81 0.89 0.88 0.86 0.88 0.87 0.86 0.84 0.80 0.76 0.71 0.69 0.65 0.59 0.55 0.53 0.51 0.51 0.53 0.55 0.59 0.57 0.52 0.45 0.40 0.37 0.34 0.32 0.30 0.29 0.27 0.26 0.24 0.21 0.19 0.18 0.18
0.48 0.49 0.52 0.55 0.60 0.65 0.72 0.77 0.77 0.74 0.77 0.80 0.81 0.83 0.82 0.77 0.74 0.70 0.63 0.58 0.57 0.54 0.53 0.54 0.57 0.60 0.58 0.52 0.45 0.39 0.35 0.32 0.28 0.26 0.25 0.24 0.24 0.23 0.22 0.19 0.17 0.14 0.15
0.49 0.50 0.53 0.55 0.58 0.62 0.67 0.72 0.74 0.77 0.78 0.77 0.76 0.76 0.76 0.75 0.72 0.67 0.64 0.68 0.62 0.55 0.56 0.59 0.61 0.57 0.53 0.47 0.40 0.32 0.27 0.25 0.24 0.22 0.22 0.21 0.22 0.19 0.18 0.18 0.18 0.16 0.11
0.50 0.52 0.54 0.57 0.60 0.63 0.67 0.70 0.72 0.74 0.76 0.77 0.76 0.75 0.74 0.72 0.70 0.70 0.64 0.59 0.57 0.59 0.58 0.58 0.55 0.51 0.43 0.37 0.30 0.24 0.23 0.21 0.20 0.19 0.19 0.16 0.15 0.16 0.17 0.17 0.16 0.15 0.13
0.50 0.53 0.57 0.59 0.61 0.63 0.65 0.67 0.69 0.71 0.72 0.74 0.75 0.73 0.72 0.75 0.72 0.64 0.58 0.59 0.60 0.62 0.57 0.55 0.51 0.43 0.34 0.27 0.22 0.19 0.19 0.18 0.17 0.16 0.14 0.13 0.14 0.15 0.15 0.14 0.15 0.14 0.14
0.50 0.51 0.55 0.60 0.61 0.63 0.65 0.65 0.66 0.68 0.70 0.71 0.72 0.74 0.74 0.70 0.61 0.60 0.63 0.65 0.60 0.56 0.54 0.52 0.43 0.34 0.27 0.23 0.19 0.17 0.17 0.15 0.13 0.13 0.13 0.13 0.14 0.14 0.14 0.14 0.14 0.14 0.14
0.48 0.50 0.55 0.58 0.63 0.65 0.66 0.66 0.67 0.69 0.75 0.76 0.73 0.71 0.67 0.65 0.66 0.68 0.65 0.55 0.52 0.54 0.50 0.42 0.35 0.29 0.23 0.20 0.16 0.16 0.15 0.14 0.14 0.13 0.12 0.13 0.14 0.13 0.13 0.13 0.14 0.14 0.13
0.49 0.50 0.51 0.58 0.60 0.64 0.67 0.69 0.72 0.74 0.73 0.72 0.71 0.69 0.69 0.69 0.66 0.56 0.52 0.51 0.51 0.49 0.43 0.37 0.30 0.25 0.22 0.20 0.16 0.15 0.14 0.14 0.13 0.13 0.12 0.13 0.13 0.13 0.13 0.13 0.14 0.13 0.12
0.45 0.48 0.52 0.55 0.61 0.64 0.69 0.72 0.72 0.72 0.72 0.69 0.68 0.66 0.66 0.59 0.54 0.51 0.50 0.50 0.49 0.45 0.38 0.31 0.26 0.23 0.22 0.19 0.16 0.15 0.13 0.12 0.11 0.11 0.11 0.13 0.13 0.14 0.14 0.14 0.13 0.12 0.11
0.42 0.48 0.53 0.54 0.56 0.60 0.64 0.66 0.66 0.66 0.69 0.68 0.65 0.64 0.57 0.52 0.51 0.50 0.50 0.49 0.46 0.39 0.32 0.27 0.23 0.21 0.20 0.18 0.16 0.14 0.13 0.11 0.10 0.10 0.11 0.12 0.12 0.13 0.14 0.13 0.12 0.12 0.10
0.41 0.48 0.51 0.55 0.59 0.60 0.64 0.64 0.65 0.65 0.64 0.63 0.61 0.56 0.53 0.50 0.51 0.50 0.48 0.45 0.38 0.32 0.26 0.23 0.20 0.19 0.20 0.17 0.15 0.13 0.12 0.11 0.11 0.10 0.11 0.11 0.12 0.14 0.13 0.12 0.11 0.10 0.11
0.35 0.41 0.50 0.56 0.60 0.64 0.63 0.66 0.68 0.66 0.63 0.60 0.57 0.54 0.53 0.51 0.51 0.52 0.48 0.40 0.32 0.26 0.22 0.20 0.19 0.18 0.19 0.18 0.15 0.13 0.14 0.13 0.12 0.12 0.12 0.12 0.12 0.14 0.13 0.12 0.10 0.09 0.10
0.34 0.36 0.42 0.48 0.56 0.59 0.62 0.63 0.63 0.62 0.59 0.56 0.55 0.54 0.53 0.54 0.53 0.49 0.40 0.31 0.26 0.21 0.18 0.17 0.16 0.18 0.18 0.19 0.16 0.14 0.14 0.13 0.12 0.12 0.12 0.12 0.13 0.14 0.14 0.12 0.10 0.10 0.10
0.36 0.38 0.40 0.45 0.46 0.49 0.54 0.55 0.56 0.57 0.55 0.55 0.56 0.56 0.54 0.52 0.50 0.41 0.32 0.26 0.22 0.19 0.18 0.17 0.17 0.18 0.18 0.19 0.18 0.16 0.15 0.13 0.13 0.12 0.12 0.12 0.13 0.13 0.13 0.12 0.11 0.11 0.10
0.39 0.43 0.45 0.45 0.48 0.50 0.51 0.51 0.53 0.52 0.55 0.56 0.55 0.53 0.52 0.50 0.44 0.33 0.27 0.22 0.19 0.17 0.17 0.17 0.17 0.17 0.18 0.18 0.17 0.16 0.15 0.13 0.12 0.11 0.11 0.12 0.13 0.13 0.12 0.12 0.12 0.11 0.10
0.43 0.45 0.46 0.46 0.48 0.52 0.52 0.51 0.50 0.55 0.55 0.53 0.51 0.50 0.50 0.45 0.35 0.27 0.22 0.19 0.17 0.17 0.16 0.17 0.17 0.17 0.17 0.17 0.16 0.15 0.15 0.13 0.12 0.10 0.11 0.11 0.12 0.12 0.11 0.11 0.12 0.11 0.10
0.49 0.51 0.49 0.48 0.51 0.52 0.52 0.50 0.51 0.54 0.52 0.50 0.48 0.48 0.45 0.38 0.30 0.23 0.19 0.17 0.16 0.16 0.16 0.15 0.15 0.15 0.15 0.16 0.15 0.15 0.15 0.13 0.12 0.10 0.09 0.10 0.10 0.11 0.11 0.11 0.11 0.11 0.11
0.49 0.54 0.52 0.50 0.49 0.51 0.52 0.52 0.53 0.53 0.51 0.47 0.45 0.43 0.35 0.28 0.23 0.19 0.17 0.16 0.16 0.15 0.14 0.14 0.13 0.14 0.15 0.16 0.16 0.16 0.15 0.13 0.12 0.10 0.09 0.09 0.10 0.11 0.12 0.12 0.12 0.12 0.11
0.50 0.51 0.52 0.50 0.49 0.50 0.50 0.52 0.52 0.51 0.47 0.45 0.41 0.35 0.29 0.25 0.20 0.19 0.19 0.18 0.17 0.16 0.14 0.14 0.14 0.14 0.14 0.16 0.17 0.16 0.14 0.13 0.11 0.09 0.10 0.10 0.10 0.10 0.12 0.12 0.12 0.11 0.11
0.50 0.50 0.52 0.49 0.50 0.49 0.48 0.48 0.48 0.47 0.44 0.41 0.39 0.33 0.27 0.23 0.21 0.20 0.19 0.19 0.18 0.18 0.18 0.17 0.16 0.16 0.17 0.16 0.15 0.14 0.13 0.12 0.10 0.09 0.09 0.10 0.10 0.11 0.12 0.12 0.11 0.11 0.10

GFSMW_prec_pwat_186.txt.gz
Precipitable_Water
0.47 0.60 0.76 0.91 0.94 0.95 0.96 0.98 0.94 0.93 0.90 0.81 0.72 0.67 0.62 0.63 0.64 0.65 0.63 0.59 0.56 0.53 0.51 0.50 0.50 0.51 0.50 0.51 0.52 0.51 0.50 0.47 0.50 0.51 0.54 0.58 0.62 0.58 0.55 0.52 0.49 0.45 0.45
0.41 0.58 0.73 0.83 0.85 0.88 0.92 0.97 0.97 0.97 0.94 0.87 0.80 0.75 0.68 0.67 0.67 0.67 0.65 0.64 0.61 0.59 0.56 0.54 0.53 0.54 0.53 0.54 0.52 0.51 0.49 0.48 0.50 0.48 0.47 0.46 0.55 0.57 0.53 0.52 0.48 0.45 0.46
0.42 0.53 0.74 0.80 0.83 0.88 0.92 0.96 0.98 0.98 0.96 0.91 0.86 0.81 0.74 0.73 0.69 0.68 0.66 0.66 0.64 0.60 0.58 0.56 0.54 0.54 0.54 0.52 0.51 0.50 0.49 0.48 0.51 0.51 0.47 0.43 0.41 0.41 0.51 0.49 0.46 0.42 0.43
0.46 0.51 0.65 0.75 0.81 0.88 0.99 0.99 1.01 0.99 0.97 0.94 0.88 0.83 0.72 0.68 0.72 0.71 0.69 0.67 0.66 0.62 0.60 0.59 0.59 0.57 0.56 0.54 0.51 0.52 0.51 0.50 0.47 0.50 0.48 0.47 0.44 0.37 0.36 0.41 0.40 0.37 0.36
0.48 0.49 0.60 0.70 0.80 0.89 0.93 0.98 1.00 0.99 0.97 0.96 0.93 0.88 0.78 0.76 0.77 0.76 0.72 0.70 0.68 0.65 0.62 0.60 0.59 0.58 0.56 0.55 0.53 0.51 0.50 0.52 0.49 0.44 0.42 0.42 0.42 0.36 0.30 0.27 0.28 0.29 0.29
0.47 0.51 0.57 0.67 0.74 0.87 0.92 0.95 0.95 0.96 0.99 0.99 0.96 0.90 0.84 0.82 0.80 0.78 0.74 0.72 0.69 0.65 0.62 0.60 0.60 0.60 0.57 0.53 0.51 0.53 0.54 0.52 0.49 0.44 0.39 0.34 0.30 0.28 0.26 0.23 0.22 0.21 0.24
0.45 0.47 0.51 0.57 0.66 0.74 0.82 0.90 0.92 0.91 0.96 0.98 0.97 0.95 0.92 0.89 0.85 0.83 0.77 0.72 0.67 0.64 0.61 0.59 0.59 0.59 0.57 0.55 0.55 0.53 0.54 0.51 0.44 0.39 0.34 0.32 0.28 0.26 0.23 0.21 0.19 0.17 0.18
0.48 0.49 0.51 0.56 0.60 0.65 0.73 0.80 0.85 0.88 0.93 0.96 0.96 0.97 0.94 0.88 0.86 0.84 0.80 0.76 0.71 0.65 0.62 0.59 0.59 0.58 0.56 0.55 0.54 0.55 0.52 0.46 0.39 0.33 0.31 0.28 0.27 0.25 0.22 0.19 0.17 0.14 0.15
0.49 0.52 0.55 0.56 0.57 0.62 0.70 0.76 0.76 0.81 0.87 0.90 0.90 0.87 0.85 0.84 0.80 0.81 0.82 0.77 0.75 0.67 0.60 0.60 0.60 0.60 0.59 0.59 0.57 0.49 0.40 0.35 0.30 0.28 0.26 0.24 0.21 0.20 0.20 0.20 0.18 0.14 0.12
0.48 0.51 0.55 0.57 0.60 0.63 0.66 0.71 0.72 0.74 0.79 0.83 0.85 0.84 0.83 0.82 0.80 0.77 0.78 0.75 0.66 0.64 0.67 0.62 0.59 0.62 0.62 0.56 0.48 0.38 0.33 0.28 0.25 0.24 0.21 0.19 0.18 0.19 0.19 0.17 0.16 0.16 0.14
0.46 0.47 0.50 0.55 0.58 0.62 0.66 0.67 0.69 0.71 0.74 0.77 0.80 0.80 0.80 0.79 0.77 0.77 0.75 0.65 0.66 0.69 0.59 0.62 0.66 0.60 0.53 0.46 0.38 0.32 0.28 0.24 0.22 0.20 0.18 0.17 0.18 0.18 0.16 0.16 0.16 0.15 0.15
0.44 0.46 0.49 0.52 0.54 0.57 0.62 0.65 0.67 0.67 0.70 0.73 0.74 0.74 0.76 0.77 0.76 0.74 0.72 0.72 0.65 0.65 0.71 0.68 0.57 0.50 0.45 0.36 0.31 0.25 0.23 0.20 0.18 0.17 0.16 0.16 0.17 0.15 0.15 0.15 0.14 0.15 0.15
0.43 0.45 0.46 0.48 0.52 0.57 0.60 0.64 0.66 0.66 0.68 0.69 0.70 0.71 0.73 0.75 0.75 0.74 0.69 0.67 0.70 0.69 0.64 0.54 0.49 0.44 0.36 0.29 0.25 0.23 0.20 0.20 0.18 0.16 0.16 0.15 0.15 0.15 0.15 0.15 0.14 0.15 0.14
0.42 0.42 0.43 0.48 0.56 0.58 0.60 0.62 0.66 0.69 0.70 0.71 0.71 0.71 0.72 0.72 0.71 0.69 0.69 0.67 0.66 0.57 0.53 0.51 0.45 0.37 0.31 0.25 0.22 0.21 0.20 0.18 0.17 0.15 0.14 0.15 0.14 0.14 0.14 0.13 0.15 0.14 0.13
0.37 0.42 0.44 0.49 0.53 0.58 0.61 0.65 0.68 0.71 0.72 0.71 0.70 0.68 0.69 0.69 0.67 0.66 0.65 0.62 0.57 0.52 0.49 0.45 0.39 0.35 0.29 0.24 0.22 0.20 0.18 0.16 0.14 0.13 0.13 0.15 0.12 0.12 0.13 0.13 0.13 0.13 0.12
0.36 0.42 0.46 0.51 0.53 0.55 0.60 0.64 0.67 0.70 0.73 0.68 0.66 0.67 0.66 0.65 0.64 0.62 0.58 0.53 0.50 0.48 0.45 0.39 0.35 0.32 0.27 0.22 0.19 0.19 0.17 0.14 0.12 0.11 0.12 0.14 0.13 0.16 0.15 0.14 0.12 0.12 0.10
0.37 0.41 0.49 0.54 0.57 0.59 0.60 0.60 0.64 0.70 0.68 0.66 0.65 0.64 0.64 0.62 0.60 0.55 0.52 0.49 0.48 0.47 0.42 0.36 0.31 0.29 0.24 0.20 0.17 0.18 0.16 0.13 0.12 0.11 0.12 0.12 0.13 0.16 0.15 0.14 0.13 0.12 0.12
0.34 0.38 0.43 0.51 0.58 0.63 0.65 0.64 0.63 0.66 0.67 0.65 0.63 0.63 0.61 0.58 0.53 0.51 0.49 0.49 0.48 0.43 0.35 0.31 0.29 0.27 0.23 0.20 0.16 0.17 0.15 0.14 0.13 0.13 0.14 0.14 0.15 0.16 0.14 0.14 0.13 0.12 0.13
0.35 0.37 0.39 0.41 0.48 0.59 0.60 0.63 0.63 0.63 0.65 0.64 0.62 0.61 0.59 0.56 0.52 0.50 0.52 0.51 0.46 0.37 0.30 0.27 0.26 0.24 0.22 0.20 0.17 0.18 0.16 0.15 0.13 0.13 0.14 0.14 0.15 0.15 0.14 0.14 0.14 0.13 0.13
0.33 0.35 0.39 0.41 0.46 0.52 0.55 0.55 0.57 0.63 0.61 0.61 0.61 0.60 0.58 0.55 0.53 0.52 0.50 0.47 0.39 0.32 0.24 0.22 0.23 0.24 0.23 0.22 0.18 0.19 0.18 0.16 0.15 0.14 0.14 0.14 0.13 0.13 0.13 0.13 0.13 0.13 0.12
0.35 0.37 0.39 0.39 0.44 0.51 0.50 0.46 0.48 0.51 0.57 0.60 0.59 0.57 0.56 0.54 0.52 0.50 0.47 0.39 0.32 0.24 0.22 0.22 0.22 0.22 0.23 0.21 0.19 0.17 0.18 0.16 0.15 0.14 0.14 0.15 0.12 0.12 0.12 0.12 0.14 0.13 0.12
0.34 0.39 0.41 0.41 0.44 0.48 0.49 0.47 0.47 0.50 0.54 0.58 0.56 0.54 0.53 0.51 0.50 0.47 0.41 0.31 0.24 0.22 0.22 0.21 0.21 0.22 0.22 0.21 0.18 0.16 0.16 0.14 0.15 0.14 0.14 0.13 0.11 0.11 0.11 0.12 0.12 0.13 0.13
0.32 0.38 0.43 0.43 0.45 0.48 0.50 0.47 0.50 0.53 0.55 0.54 0.52 0.51 0.50 0.49 0.48 0.42 0.33 0.25 0.21 0.20 0.21 0.20 0.21 0.20 0.21 0.19 0.17 0.16 0.15 0.14 0.15 0.13 0.11 0.10 0.10 0.10 0.12 0.12 0.13 0.14 0.15
0.29 0.37 0.44 0.44 0.47 0.49 0.51 0.50 0.52 0.54 0.52 0.50 0.50 0.49 0.47 0.46 0.43 0.36 0.29 0.24 0.21 0.20 0.20 0.20 0.20 0.20 0.19 0.19 0.19 0.18 0.18 0.16 0.16 0.13 0.13 0.11 0.11 0.11 0.12 0.14 0.15 0.16 0.16
0.31 0.36 0.43 0.47 0.52 0.51 0.52 0.54 0.54 0.53 0.50 0.49 0.48 0.46 0.45 0.42 0.36 0.30 0.23 0.20 0.21 0.21 0.21 0.20 0.20 0.18 0.18 0.19 0.19 0.18 0.17 0.16 0.14 0.11 0.13 0.12 0.12 0.11 0.13 0.15 0.16 0.16 0.15
0.34 0.37 0.43 0.51 0.52 0.51 0.52 0.52 0.52 0.51 0.49 0.47 0.45 0.43 0.41 0.35 0.30 0.25 0.23 0.23 0.24 0.21 0.21 0.21 0.21 0.20 0.21 0.18 0.17 0.16 0.14 0.12 0.12 0.13 0.12 0.11 0.11 0.12 0.13 0.14 0.15 0.15 0.14

GFSMW_prec_pwat_192.txt.gz
Precipitable_Water
0.50 0.53 0.51 0.54 0.63 0.83 1.16 1.15 1.07 1.05 1.04 0.97 0.91 0.85 0.80 0.79 0.76 0.75 0.74 0.67 0.65 0.60 0.58 0.57 0.54 0.57 0.56 0.57 0.57 0.57 0.54 0.53 0.58 0.58 0.61 0.63 0.64 0.61 0.59 0.59 0.56 0.56 0.54
0.49 0.53 0.54 0.53 0.55 0.75 1.09 1.16 1.11 1.07 1.04 1.00 0.95 0.91 0.88 0.83 0.80 0.79 0.76 0.70 0.66 0.62 0.60 0.59 0.57 0.59 0.58 0.60 0.60 0.60 0.55 0.54 0.56 0.54 0.58 0.53 0.60 0.66 0.63 0.59 0.54 0.52 0.52
0.47 0.52 0.55 0.58 0.61 0.76 0.99 1.06 1.09 1.09 1.08 1.08 1.00 0.94 0.92 0.86 0.79 0.78 0.75 0.73 0.69 0.63 0.63 0.63 0.62 0.61 0.63 0.61 0.60 0.60 0.59 0.53 0.51 0.55 0.53 0.46 0.48 0.60 0.64 0.59 0.54 0.48 0.45
0.51 0.54 0.57 0.61 0.78 0.84 1.10 1.11 1.09 1.04 1.05 1.07 0.98 0.91 0.85 0.82 0.83 0.83 0.81 0.76 0.73 0.67 0.67 0.66 0.66 0.64 0.65 0.62 0.61 0.62 0.62 0.61 0.53 0.50 0.56 0.58 0.58 0.48 0.50 0.59 0.55 0.51 0.41
0.49 0.51 0.54 0.61 0.74 1.08 1.13 1.15 1.17 1.13 1.05 1.00 0.98 0.93 0.89 0.90 0.90 0.89 0.86 0.83 0.78 0.73 0.70 0.70 0.68 0.66 0.67 0.64 0.62 0.60 0.59 0.59 0.56 0.55 0.50 0.49 0.46 0.50 0.46 0.45 0.45 0.48 0.41
0.51 0.50 0.52 0.58 0.77 1.13 1.22 1.14 1.16 1.15 1.09 1.04 1.01 0.93 0.91 0.91 0.88 0.89 0.86 0.85 0.81 0.78 0.74 0.73 0.72 0.70 0.67 0.64 0.62 0.61 0.60 0.57 0.55 0.53 0.51 0.48 0.44 0.38 0.36 0.34 0.36 0.33 0.35
0.52 0.51 0.48 0.50 0.64 0.88 0.99 1.12 1.07 1.07 1.09 1.05 1.05 1.00 0.94 0.95 0.92 0.90 0.91 0.87 0.83 0.80 0.77 0.77 0.74 0.70 0.68 0.66 0.65 0.63 0.61 0.60 0.56 0.55 0.52 0.49 0.45 0.43 0.38 0.36 0.34 0.30 0.30
0.58 0.55 0.54 0.54 0.56 0.71 0.84 0.94 0.98 1.00 1.05 1.04 1.05 1.05 1.01 0.98 0.95 0.93 0.95 0.91 0.86 0.84 0.84 0.80 0.76 0.71 0.67 0.65 0.65 0.66 0.65 0.63 0.60 0.56 0.52 0.48 0.44 0.42 0.40 0.36 0.32 0.27 0.28
0.57 0.57 0.58 0.58 0.60 0.63 0.71 0.82 0.88 0.92 0.97 1.02 1.04 1.06 1.01 1.00 0.96 0.94 0.96 0.93 0.92 0.88 0.82 0.80 0.72 0.68 0.66 0.72 0.71 0.71 0.67 0.63 0.66 0.56 0.50 0.45 0.45 0.45 0.42 0.36 0.32 0.25 0.19
0.57 0.58 0.59 0.59 0.60 0.65 0.72 0.79 0.80 0.80 0.90 0.95 0.97 0.98 0.99 0.97 0.94 0.92 0.91 0.93 0.90 0.86 0.77 0.74 0.77 0.82 0.84 0.75 0.71 0.67 0.66 0.61 0.59 0.53 0.51 0.50 0.47 0.43 0.36 0.32 0.28 0.23 0.19
0.60 0.55 0.58 0.60 0.61 0.65 0.66 0.70 0.74 0.77 0.82 0.87 0.91 0.93 0.93 0.92 0.91 0.89 0.88 0.88 0.86 0.84 0.85 0.84 0.82 0.77 0.71 0.70 0.64 0.59 0.57 0.59 0.57 0.54 0.49 0.45 0.43 0.35 0.31 0.29 0.25 0.22 0.19
0.58 0.57 0.56 0.55 0.56 0.54 0.56 0.59 0.64 0.70 0.77 0.84 0.87 0.89 0.89 0.88 0.85 0.84 0.85 0.86 0.82 0.78 0.74 0.72 0.73 0.71 0.64 0.63 0.59 0.62 0.59 0.58 0.54 0.50 0.41 0.37 0.34 0.31 0.28 0.25 0.22 0.20 0.18
0.54 0.57 0.54 0.50 0.50 0.51 0.52 0.55 0.59 0.63 0.70 0.74 0.76 0.79 0.81 0.81 0.81 0.81 0.81 0.80 0.76 0.74 0.72 0.70 0.67 0.70 0.68 0.67 0.65 0.63 0.59 0.54 0.46 0.42 0.38 0.33 0.32 0.27 0.24 0.21 0.20 0.18 0.16
0.52 0.53 0.50 0.52 0.53 0.51 0.51 0.52 0.55 0.59 0.63 0.66 0.68 0.70 0.74 0.76 0.77 0.79 0.78 0.76 0.73 0.73 0.73 0.73 0.71 0.69 0.65 0.60 0.58 0.57 0.49 0.42 0.40 0.37 0.33 0.30 0.27 0.23 0.19 0.19 0.16 0.14 0.13
0.42 0.41 0.54 0.49 0.55 0.51 0.51 0.53 0.52 0.53 0.57 0.62 0.65 0.66 0.70 0.73 0.74 0.72 0.72 0.71 0.70 0.69 0.68 0.67 0.64 0.59 0.53 0.55 0.53 0.46 0.40 0.36 0.33 0.33 0.30 0.24 0.21 0.18 0.16 0.14 0.11 0.12 0.13
0.39 0.37 0.43 0.59 0.59 0.53 0.52 0.53 0.52 0.54 0.56 0.59 0.62 0.66 0.66 0.67 0.66 0.68 0.67 0.66 0.65 0.65 0.64 0.61 0.57 0.55 0.57 0.53 0.45 0.41 0.36 0.32 0.29 0.28 0.26 0.23 0.21 0.20 0.18 0.16 0.16 0.15 0.13
0.45 0.45 0.54 0.58 0.64 0.59 0.53 0.52 0.56 0.59 0.59 0.59 0.63 0.64 0.64 0.64 0.62 0.62 0.63 0.61 0.60 0.61 0.59 0.57 0.54 0.56 0.49 0.43 0.39 0.35 0.31 0.29 0.27 0.26 0.24 0.19 0.20 0.21 0.19 0.19 0.19 0.19 0.17
0.46 0.48 0.50 0.47 0.51 0.55 0.54 0.56 0.56 0.57 0.57 0.60 0.61 0.64 0.63 0.62 0.61 0.61 0.60 0.59 0.59 0.57 0.57 0.56 0.55 0.50 0.39 0.37 0.34 0.31 0.30 0.28 0.25 0.24 0.22 0.22 0.22 0.21 0.17 0.15 0.17 0.16 0.16
0.42 0.42 0.44 0.42 0.42 0.45 0.57 0.56 0.54 0.53 0.53 0.53 0.57 0.62 0.63 0.61 0.60 0.58 0.58 0.58 0.57 0.55 0.53 0.52 0.50 0.45 0.34 0.34 0.32 0.31 0.28 0.25 0.22 0.22 0.22 0.22 0.20 0.18 0.15 0.14 0.14 0.14 0.15
0.41 0.39 0.37 0.38 0.41 0.42 0.48 0.55 0.53 0.51 0.49 0.54 0.55 0.58 0.58 0.59 0.57 0.57 0.56 0.56 0.55 0.53 0.51 0.50 0.50 0.44 0.32 0.33 0.31 0.30 0.26 0.23 0.21 0.22 0.21 0.18 0.15 0.14 0.14 0.12 0.12 0.13 0.13
0.32 0.29 0.31 0.31 0.31 0.34 0.41 0.45 0.48 0.51 0.55 0.56 0.56 0.56 0.56 0.56 0.57 0.57 0.55 0.54 0.52 0.50 0.47 0.45 0.46 0.39 0.30 0.29 0.29 0.28 0.27 0.25 0.23 0.21 0.20 0.19 0.18 0.14 0.13 0.12 0.13 0.12 0.11
0.27 0.28 0.27 0.26 0.26 0.29 0.37 0.40 0.42 0.49 0.53 0.55 0.54 0.53 0.54 0.54 0.54 0.53 0.52 0.51 0.47 0.43 0.42 0.42 0.40 0.39 0.33 0.27 0.27 0.28 0.28 0.25 0.22 0.20 0.20 0.18 0.16 0.13 0.12 0.12 0.12 0.13 0.13
0.25 0.27 0.26 0.25 0.24 0.28 0.31 0.34 0.40 0.46 0.50 0.50 0.50 0.50 0.52 0.51 0.49 0.49 0.47 0.44 0.42 0.40 0.39 0.39 0.38 0.36 0.32 0.28 0.24 0.24 0.21 0.21 0.21 0.20 0.18 0.14 0.12 0.13 0.14 0.15 0.15 0.15 0.14
0.27 0.27 0.26 0.24 0.24 0.28 0.31 0.38 0.45 0.50 0.50 0.48 0.47 0.48 0.47 0.47 0.48 0.48 0.47 0.42 0.39 0.40 0.39 0.37 0.35 0.34 0.30 0.26 0.22 0.19 0.18 0.16 0.17 0.17 0.16 0.16 0.16 0.16 0.17 0.17 0.17 0.16 0.16
0.29 0.32 0.28 0.25 0.27 0.29 0.33 0.40 0.47 0.51 0.49 0.47 0.47 0.46 0.46 0.46 0.46 0.45 0.43 0.40 0.42 0.43 0.41 0.37 0.34 0.28 0.24 0.24 0.22 0.21 0.19 0.19 0.19 0.17 0.15 0.16 0.17 0.17 0.17 0.17 0.16 0.16 0.16
0.32 0.33 0.31 0.28 0.28 0.30 0.34 0.40 0.46 0.50 0.49 0.46 0.45 0.45 0.44 0.44 0.43 0.43 0.41 0.44 0.44 0.44 0.38 0.36 0.35 0.29 0.28 0.27 0.24 0.22 0.21 0.20 0.17 0.13 0.14 0.16 0.17 0.16 0.15 0.15 0.14 0.15 0.15

GFSMW_prec_pwat_195.txt.gz
Precipitable_Water
0.50 0.51 0.51 0.52 0.58 0.86 0.99 1.08 1.13 1.17 1.11 1.04 0.96 0.91 0.84 0.86 0.85 0.83 0.79 0.74 0.68 0.66 0.65 0.60 0.57 0.58 0.54 0.55 0.56 0.53 0.53 0.56 0.62 0.61 0.62 0.64 0.66 0.63 0.57 0.58 0.55 0.53 0.55
0.50 0.52 0.54 0.56 0.58 0.69 0.94 0.98 1.06 1.15 1.16 1.14 1.05 1.00 0.94 0.89 0.87 0.86 0.82 0.76 0.69 0.67 0.66 0.62 0.58 0.60 0.58 0.57 0.59 0.56 0.52 0.56 0.64 0.59 0.60 0.55 0.60 0.61 0.60 0.59 0.55 0.53 0.54
0.45 0.49 0.53 0.56 0.61 0.69 0.78 0.90 0.97 1.06 1.13 1.13 1.07 1.04 1.04 0.93 0.85 0.83 0.80 0.78 0.72 0.69 0.67 0.65 0.63 0.62 0.61 0.59 0.59 0.58 0.56 0.51 0.57 0.62 0.58 0.54 0.50 0.56 0.58 0.58 0.58 0.54 0.52
0.48 0.50 0.52 0.54 0.61 0.70 0.83 0.87 0.97 1.07 1.10 1.12 1.06 0.99 0.96 0.90 0.86 0.86 0.86 0.82 0.76 0.70 0.70 0.68 0.66 0.63 0.64 0.62 0.61 0.62 0.60 0.57 0.50 0.59 0.63 0.61 0.63 0.54 0.48 0.56 0.57 0.54 0.50
0.47 0.48 0.53 0.59 0.70 0.83 0.90 0.97 1.00 1.10 1.16 1.22 1.25 1.06 0.97 0.97 0.95 0.91 0.87 0.85 0.80 0.76 0.74 0.72 0.70 0.67 0.66 0.64 0.62 0.62 0.61 0.63 0.58 0.54 0.57 0.58 0.62 0.61 0.56 0.48 0.50 0.52 0.49
0.47 0.50 0.56 0.63 0.78 0.99 1.02 1.04 1.09 1.10 1.16 1.23 1.23 1.18 1.04 0.92 0.89 0.90 0.87 0.86 0.84 0.81 0.80 0.80 0.75 0.71 0.68 0.66 0.63 0.62 0.63 0.63 0.62 0.61 0.58 0.55 0.55 0.53 0.54 0.52 0.48 0.45 0.45
0.53 0.52 0.55 0.60 0.75 0.99 1.10 1.14 1.16 1.14 1.20 1.28 1.26 1.17 1.10 0.95 0.90 0.92 0.91 0.90 0.88 0.85 0.85 0.82 0.77 0.75 0.73 0.70 0.67 0.64 0.63 0.63 0.61 0.61 0.59 0.57 0.53 0.50 0.48 0.49 0.44 0.40 0.42
0.56 0.61 0.62 0.61 0.67 0.87 1.00 1.08 1.14 1.15 1.17 1.15 1.14 1.10 1.03 0.98 0.95 0.93 0.95 0.94 0.94 0.94 0.91 0.85 0.81 0.77 0.73 0.70 0.67 0.64 0.62 0.61 0.59 0.56 0.56 0.56 0.54 0.49 0.48 0.42 0.38 0.34 0.36
0.60 0.59 0.62 0.65 0.67 0.73 0.84 0.96 1.01 1.00 1.02 1.03 1.05 1.08 1.05 0.95 0.92 0.91 0.93 0.92 0.97 0.96 0.95 0.90 0.82 0.76 0.73 0.70 0.67 0.65 0.61 0.60 0.60 0.63 0.66 0.60 0.56 0.54 0.53 0.45 0.41 0.36 0.36
0.67 0.67 0.63 0.65 0.69 0.76 0.82 0.87 0.92 0.94 0.98 1.00 1.04 1.01 1.00 1.00 0.95 0.93 0.89 0.92 0.93 0.95 0.92 0.89 0.81 0.78 0.70 0.67 0.69 0.70 0.73 0.71 0.73 0.71 0.64 0.57 0.56 0.51 0.49 0.49 0.43 0.41 0.37
0.65 0.67 0.71 0.70 0.64 0.69 0.72 0.78 0.81 0.81 0.84 0.95 0.99 1.01 1.01 0.98 0.99 0.94 0.92 0.92 0.93 0.93 0.89 0.89 0.85 0.77 0.77 0.82 0.81 0.79 0.78 0.77 0.69 0.61 0.58 0.52 0.50 0.51 0.51 0.48 0.41 0.32 0.31
0.51 0.61 0.69 0.70 0.63 0.58 0.58 0.63 0.70 0.72 0.76 0.82 0.90 0.91 0.95 0.94 0.93 0.89 0.90 0.91 0.89 0.91 0.86 0.81 0.77 0.79 0.79 0.79 0.77 0.75 0.70 0.62 0.57 0.53 0.57 0.57 0.53 0.47 0.44 0.40 0.36 0.30 0.26
0.45 0.54 0.57 0.70 0.68 0.62 0.56 0.57 0.62 0.64 0.68 0.73 0.76 0.79 0.83 0.85 0.88 0.87 0.88 0.87 0.86 0.82 0.81 0.78 0.78 0.77 0.74 0.74 0.68 0.62 0.57 0.56 0.59 0.59 0.56 0.53 0.47 0.41 0.37 0.33 0.29 0.27 0.23
0.35 0.45 0.54 0.57 0.61 0.61 0.58 0.52 0.54 0.61 0.63 0.64 0.66 0.68 0.70 0.73 0.76 0.79 0.79 0.81 0.80 0.77 0.77 0.75 0.73 0.71 0.68 0.63 0.57 0.60 0.62 0.59 0.57 0.55 0.49 0.43 0.39 0.36 0.33 0.28 0.25 0.23 0.19
0.34 0.36 0.44 0.55 0.55 0.61 0.59 0.55 0.52 0.57 0.59 0.59 0.61 0.64 0.68 0.68 0.70 0.70 0.72 0.74 0.74 0.73 0.71 0.69 0.68 0.66 0.65 0.64 0.62 0.59 0.57 0.55 0.49 0.44 0.41 0.38 0.34 0.33 0.27 0.24 0.22 0.19 0.17
0.33 0.41 0.41 0.52 0.55 0.62 0.61 0.53 0.51 0.53 0.56 0.55 0.57 0.61 0.61 0.64 0.67 0.67 0.66 0.66 0.67 0.66 0.66 0.65 0.62 0.61 0.61 0.59 0.61 0.56 0.49 0.45 0.42 0.37 0.33 0.31 0.29 0.26 0.25 0.23 0.21 0.19 0.17
0.37 0.45 0.49 0.59 0.63 0.67 0.60 0.53 0.52 0.55 0.55 0.55 0.58 0.59 0.59 0.59 0.62 0.63 0.63 0.63 0.62 0.62 0.59 0.59 0.58 0.56 0.57 0.58 0.53 0.49 0.45 0.41 0.37 0.32 0.29 0.29 0.29 0.26 0.23 0.21 0.23 0.22 0.21
0.42 0.49 0.52 0.56 0.58 0.61 0.58 0.53 0.52 0.53 0.51 0.51 0.54 0.58 0.59 0.59 0.62 0.60 0.59 0.60 0.60 0.57 0.56 0.55 0.56 0.54 0.54 0.50 0.47 0.44 0.40 0.36 0.34 0.31 0.28 0.28 0.27 0.25 0.20 0.20 0.21 0.20 0.20
0.49 0.53 0.53 0.50 0.52 0.51 0.53 0.50 0.50 0.50 0.49 0.50 0.50 0.53 0.56 0.56 0.56 0.59 0.59 0.58 0.56 0.55 0.54 0.54 0.53 0.52 0.50 0.48 0.43 0.41 0.36 0.32 0.32 0.33 0.29 0.26 0.25 0.23 0.19 0.19 0.17 0.17 0.17
0.47 0.48 0.44 0.42 0.40 0.43 0.42 0.38 0.38 0.40 0.41 0.48 0.53 0.54 0.55 0.55 0.55 0.55 0.55 0.55 0.56 0.54 0.53 0.52 0.51 0.51 0.45 0.43 0.40 0.37 0.35 0.30 0.27 0.27 0.25 0.25 0.22 0.19 0.16 0.15 0.15 0.15 0.16
0.41 0.40 0.36 0.29 0.29 0.27 0.31 0.31 0.35 0.37 0.43 0.47 0.50 0.52 0.54 0.54 0.54 0.54 0.54 0.54 0.54 0.53 0.50 0.49 0.49 0.48 0.41 0.39 0.38 0.37 0.31 0.29 0.27 0.23 0.22 0.22 0.20 0.16 0.15 0.15 0.15 0.13 0.13
0.36 0.36 0.26 0.22 0.23 0.26 0.31 0.31 0.31 0.35 0.41 0.45 0.46 0.49 0.51 0.52 0.53 0.52 0.53 0.51 0.51 0.48 0.45 0.46 0.45 0.44 0.37 0.37 0.36 0.35 0.29 0.27 0.25 0.24 0.24 0.22 0.18 0.15 0.14 0.14 0.15 0.15 0.15
0.34 0.32 0.25 0.23 0.23 0.27 0.31 0.30 0.32 0.37 0.40 0.42 0.43 0.47 0.48 0.50 0.51 0.49 0.49 0.47 0.47 0.45 0.44 0.43 0.42 0.40 0.35 0.32 0.34 0.32 0.32 0.31 0.26 0.25 0.22 0.20 0.15 0.15 0.16 0.16 0.17 0.16 0.16
0.31 0.31 0.25 0.21 0.20 0.24 0.28 0.31 0.34 0.37 0.39 0.44 0.48 0.50 0.47 0.47 0.48 0.48 0.47 0.45 0.44 0.43 0.43 0.42 0.40 0.39 0.36 0.29 0.31 0.31 0.29 0.28 0.24 0.21 0.18 0.16 0.17 0.17 0.18 0.18 0.18 0.17 0.16
0.36 0.33 0.30 0.26 0.23 0.26 0.28 0.30 0.32 0.35 0.39 0.46 0.48 0.47 0.48 0.47 0.46 0.46 0.46 0.45 0.45 0.46 0.42 0.42 0.40 0.38 0.34 0.32 0.28 0.25 0.22 0.19 0.19 0.19 0.18 0.16 0.17 0.17 0.17 0.18 0.18 0.17 0.16
0.35 0.36 0.33 0.29 0.26 0.27 0.28 0.29 0.32 0.35 0.40 0.45 0.46 0.46 0.45 0.45 0.45 0.44 0.44 0.46 0.46 0.45 0.44 0.44 0.43 0.40 0.34 0.31 0.27 0.22 0.20 0.21 0.21 0.17 0.14 0.15 0.16 0.17 0.17 0.16 0.15 0.15 0.14

GFSMW_prec_pwat_198.txt.gz
Precipitable_Water
0.49 0.50 0.53 0.67 0.74 0.83 0.86 0.94 0.99 1.04 1.10 1.08 1.07 1.08 0.98 0.99 0.97 0.93 0.92 0.83 0.79 0.73 0.69 0.64 0.58 0.57 0.55 0.55 0.55 0.56 0.56 0.61 0.65 0.60 0.61 0.62 0.63 0.61 0.61 0.60 0.60 0.60 0.61
0.47 0.49 0.53 0.54 0.65 0.71 0.79 0.85 0.94 1.04 1.05 1.06 1.11 1.10 1.06 1.05 1.06 1.06 1.01 0.95 0.86 0.78 0.72 0.65 0.60 0.59 0.58 0.59 0.57 0.56 0.56 0.61 0.66 0.57 0.57 0.53 0.57 0.61 0.62 0.62 0.60 0.57 0.59
0.46 0.49 0.53 0.57 0.60 0.60 0.75 0.80 0.86 0.94 1.01 1.06 1.09 1.08 1.07 1.05 1.01 1.01 1.00 0.97 0.90 0.83 0.77 0.72 0.67 0.64 0.63 0.61 0.60 0.59 0.57 0.56 0.63 0.64 0.57 0.53 0.50 0.55 0.60 0.61 0.62 0.60 0.58
0.47 0.51 0.53 0.60 0.66 0.70 0.73 0.85 0.89 0.94 1.02 1.07 1.06 1.05 1.00 0.92 0.97 1.01 1.06 1.02 0.95 0.85 0.77 0.72 0.68 0.66 0.65 0.62 0.62 0.62 0.60 0.60 0.56 0.63 0.64 0.66 0.62 0.53 0.51 0.61 0.62 0.63 0.59
0.48 0.49 0.52 0.57 0.71 0.81 0.83 0.92 1.02 0.98 1.01 1.02 1.02 1.03 1.07 1.10 1.10 1.12 1.07 1.04 0.97 0.90 0.82 0.76 0.72 0.69 0.68 0.67 0.65 0.63 0.61 0.61 0.61 0.61 0.59 0.60 0.64 0.64 0.55 0.51 0.55 0.60 0.60
0.51 0.53 0.55 0.57 0.61 0.83 0.97 1.02 1.04 1.03 1.06 1.08 1.09 1.11 1.13 1.12 1.11 1.12 1.12 1.06 0.98 0.93 0.88 0.82 0.77 0.74 0.71 0.70 0.68 0.66 0.64 0.62 0.59 0.61 0.62 0.60 0.58 0.59 0.58 0.55 0.56 0.56 0.59
0.51 0.52 0.53 0.54 0.57 0.69 0.91 1.06 1.09 1.08 1.13 1.14 1.17 1.24 1.19 1.17 1.13 1.05 1.05 1.05 0.97 0.93 0.91 0.87 0.81 0.77 0.75 0.75 0.72 0.67 0.66 0.65 0.63 0.61 0.58 0.59 0.61 0.63 0.63 0.61 0.58 0.56 0.58
0.54 0.54 0.54 0.55 0.57 0.61 0.74 0.97 1.08 1.12 1.20 1.23 1.25 1.29 1.26 1.21 1.13 1.07 1.04 0.97 0.97 0.98 0.95 0.93 0.91 0.87 0.82 0.77 0.79 0.71 0.66 0.65 0.66 0.63 0.62 0.59 0.57 0.60 0.63 0.61 0.59 0.52 0.52
0.53 0.54 0.56 0.58 0.60 0.60 0.67 0.80 0.99 1.11 1.16 1.21 1.23 1.24 1.27 1.15 1.10 1.05 1.01 0.96 0.97 0.98 0.96 0.97 0.94 0.92 0.90 0.85 0.78 0.72 0.66 0.65 0.64 0.62 0.59 0.55 0.54 0.53 0.58 0.69 0.58 0.50 0.45
0.39 0.41 0.42 0.46 0.56 0.65 0.62 0.67 0.81 0.96 1.08 1.20 1.16 1.11 1.05 1.10 1.02 0.98 0.90 0.92 0.95 0.96 0.92 0.92 0.90 0.92 0.91 0.85 0.81 0.74 0.67 0.59 0.57 0.58 0.57 0.58 0.65 0.72 0.72 0.59 0.53 0.55 0.48
0.37 0.40 0.44 0.47 0.50 0.56 0.58 0.59 0.64 0.77 0.88 0.97 0.97 1.07 1.06 1.00 1.00 0.97 0.92 0.94 0.93 0.91 0.92 0.92 0.89 0.89 0.87 0.88 0.80 0.73 0.73 0.73 0.74 0.74 0.79 0.74 0.75 0.71 0.59 0.60 0.55 0.48 0.50
0.32 0.34 0.38 0.42 0.50 0.53 0.53 0.50 0.55 0.61 0.74 0.81 0.91 0.96 0.94 0.95 0.92 0.94 0.95 0.90 0.87 0.88 0.90 0.88 0.88 0.85 0.84 0.83 0.80 0.78 0.77 0.77 0.76 0.75 0.74 0.70 0.65 0.56 0.52 0.48 0.50 0.55 0.51
0.32 0.35 0.38 0.37 0.39 0.48 0.50 0.53 0.57 0.61 0.69 0.73 0.77 0.82 0.87 0.87 0.89 0.90 0.88 0.88 0.86 0.85 0.84 0.86 0.81 0.81 0.80 0.78 0.78 0.76 0.75 0.74 0.72 0.70 0.63 0.54 0.51 0.50 0.53 0.52 0.42 0.39 0.38
0.33 0.35 0.38 0.37 0.41 0.51 0.60 0.60 0.61 0.63 0.67 0.69 0.69 0.70 0.73 0.77 0.81 0.84 0.83 0.82 0.81 0.83 0.77 0.76 0.76 0.76 0.75 0.74 0.72 0.71 0.70 0.68 0.65 0.57 0.54 0.55 0.55 0.52 0.47 0.40 0.37 0.32 0.30
0.26 0.31 0.36 0.38 0.43 0.51 0.60 0.64 0.65 0.62 0.64 0.66 0.65 0.65 0.65 0.66 0.70 0.71 0.73 0.74 0.72 0.71 0.72 0.70 0.69 0.69 0.69 0.69 0.66 0.64 0.60 0.55 0.53 0.55 0.55 0.52 0.48 0.42 0.40 0.36 0.32 0.28 0.25
0.25 0.31 0.37 0.38 0.43 0.48 0.59 0.66 0.68 0.63 0.63 0.61 0.61 0.63 0.63 0.65 0.66 0.67 0.67 0.67 0.66 0.66 0.65 0.64 0.63 0.62 0.64 0.64 0.60 0.55 0.55 0.58 0.57 0.53 0.50 0.47 0.43 0.39 0.33 0.30 0.26 0.22 0.19
0.32 0.33 0.37 0.39 0.43 0.51 0.63 0.68 0.66 0.66 0.60 0.58 0.58 0.59 0.59 0.60 0.63 0.64 0.65 0.64 0.63 0.63 0.62 0.61 0.61 0.59 0.61 0.59 0.57 0.55 0.54 0.51 0.48 0.44 0.40 0.36 0.35 0.30 0.27 0.27 0.27 0.27 0.26
0.36 0.39 0.42 0.48 0.57 0.63 0.69 0.64 0.61 0.60 0.57 0.53 0.52 0.53 0.55 0.57 0.59 0.59 0.59 0.60 0.61 0.59 0.58 0.58 0.58 0.56 0.55 0.55 0.54 0.50 0.47 0.45 0.44 0.41 0.39 0.33 0.29 0.28 0.26 0.24 0.23 0.23 0.26
0.46 0.46 0.53 0.56 0.58 0.62 0.60 0.55 0.52 0.50 0.49 0.48 0.50 0.50 0.51 0.51 0.53 0.52 0.52 0.53 0.56 0.57 0.56 0.55 0.54 0.52 0.51 0.50 0.47 0.45 0.42 0.41 0.40 0.38 0.35 0.29 0.27 0.29 0.26 0.25 0.23 0.22 0.21
0.50 0.49 0.51 0.48 0.52 0.61 0.55 0.45 0.38 0.37 0.38 0.41 0.44 0.47 0.46 0.47 0.49 0.52 0.51 0.52 0.52 0.53 0.55 0.52 0.53 0.52 0.49 0.48 0.46 0.43 0.40 0.40 0.35 0.35 0.35 0.34 0.31 0.25 0.21 0.21 0.21 0.19 0.19
0.54 0.52 0.48 0.44 0.48 0.46 0.41 0.35 0.35 0.32 0.37 0.40 0.40 0.42 0.44 0.46 0.47 0.49 0.53 0.53 0.51 0.50 0.51 0.51 0.50 0.50 0.48 0.48 0.46 0.44 0.40 0.37 0.36 0.32 0.29 0.28 0.26 0.22 0.21 0.19 0.18 0.17 0.16
0.52 0.48 0.42 0.35 0.30 0.28 0.28 0.27 0.29 0.35 0.38 0.39 0.39 0.40 0.40 0.43 0.46 0.47 0.48 0.50 0.50 0.48 0.48 0.47 0.47 0.47 0.47 0.46 0.44 0.42 0.38 0.36 0.32 0.31 0.29 0.26 0.25 0.21 0.18 0.17 0.17 0.16 0.16
0.51 0.46 0.32 0.22 0.20 0.23 0.27 0.25 0.30 0.34 0.35 0.35 0.36 0.40 0.44 0.45 0.45 0.46 0.45 0.46 0.47 0.46 0.45 0.45 0.43 0.43 0.41 0.42 0.42 0.39 0.36 0.32 0.28 0.27 0.28 0.29 0.24 0.19 0.18 0.18 0.17 0.17 0.16
0.49 0.42 0.28 0.20 0.18 0.23 0.26 0.28 0.30 0.32 0.33 0.34 0.36 0.43 0.47 0.47 0.49 0.48 0.46 0.46 0.44 0.44 0.44 0.43 0.42 0.41 0.38 0.38 0.37 0.37 0.31 0.30 0.31 0.31 0.29 0.25 0.20 0.19 0.18 0.18 0.19 0.18 0.18
0.47 0.40 0.27 0.22 0.21 0.24 0.25 0.28 0.30 0.31 0.32 0.35 0.37 0.44 0.48 0.47 0.47 0.46 0.45 0.46 0.46 0.46 0.44 0.43 0.42 0.40 0.37 0.35 0.33 0.33 0.32 0.31 0.29 0.27 0.23 0.19 0.17 0.17 0.17 0.18 0.18 0.18 0.18
0.45 0.43 0.39 0.35 0.29 0.26 0.27 0.29 0.32 0.32 0.33 0.33 0.35 0.41 0.44 0.44 0.44 0.45 0.44 0.47 0.48 0.47 0.46 0.45 0.44 0.43 0.41 0.36 0.33 0.31 0.29 0.28 0.26 0.21 0.18 0.17 0.17 0.17 0.17 0.17 0.17 0.17 0.17

GFSMW_prec_pwat_201.txt.gz
Precipitable_Water
0.49 0.55 0.57 0.61 0.92 1.00 1.06 1.07 1.01 1.04 1.11 1.05 1.00 1.01 0.96 1.04 1.12 1.18 1.19 1.12 1.00 0.87 0.77 0.72 0.68 0.66 0.62 0.60 0.59 0.57 0.61 0.67 0.70 0.64 0.63 0.63 0.62 0.61 0.62 0.64 0.66 0.66 0.65
0.51 0.55 0.61 0.67 0.70 0.78 0.95 1.06 1.08 1.15 1.09 1.04 1.01 1.06 1.07 1.09 1.12 1.17 1.16 1.12 1.04 0.95 0.84 0.75 0.69 0.68 0.63 0.60 0.58 0.56 0.60 0.68 0.72 0.60 0.58 0.50 0.54 0.59 0.64 0.67 0.67 0.66 0.66
0.51 0.54 0.56 0.60 0.70 0.78 0.84 0.84 0.99 1.05 1.11 1.15 1.07 1.04 1.08 1.10 1.08 1.09 1.06 1.06 1.05 1.02 0.94 0.84 0.76 0.71 0.65 0.57 0.57 0.58 0.59 0.61 0.70 0.67 0.57 0.49 0.46 0.53 0.62 0.65 0.68 0.69 0.67
0.52 0.55 0.56 0.57 0.61 0.71 0.84 0.90 0.87 0.99 1.10 1.17 1.09 0.98 0.87 0.83 0.94 1.04 1.09 1.09 1.07 1.05 1.02 0.94 0.84 0.75 0.69 0.62 0.61 0.62 0.61 0.65 0.62 0.67 0.65 0.64 0.58 0.49 0.49 0.60 0.64 0.71 0.70
0.49 0.49 0.50 0.54 0.58 0.63 0.70 0.83 0.95 1.08 1.15 1.15 1.12 1.06 1.04 1.06 1.05 1.06 1.06 1.07 1.11 1.13 1.08 1.03 0.91 0.81 0.74 0.68 0.66 0.65 0.63 0.66 0.66 0.64 0.62 0.63 0.62 0.59 0.52 0.48 0.55 0.63 0.69
0.50 0.52 0.54 0.54 0.53 0.56 0.58 0.71 0.83 0.94 1.11 1.16 1.13 1.05 1.06 1.07 1.07 1.09 1.08 1.10 1.13 1.13 1.12 1.12 1.02 0.90 0.80 0.73 0.70 0.69 0.67 0.66 0.69 0.71 0.67 0.63 0.60 0.57 0.55 0.52 0.54 0.56 0.62
0.50 0.50 0.49 0.46 0.46 0.47 0.51 0.55 0.71 0.81 0.95 1.05 1.09 1.07 1.08 1.07 1.09 1.16 1.15 1.10 1.11 1.13 1.12 1.11 1.02 1.00 0.89 0.80 0.74 0.70 0.68 0.69 0.66 0.68 0.70 0.70 0.67 0.68 0.65 0.61 0.57 0.56 0.60
0.44 0.42 0.41 0.43 0.45 0.45 0.48 0.51 0.54 0.68 0.85 0.92 1.00 1.07 1.07 1.06 1.09 1.12 1.18 1.18 1.14 1.16 1.13 1.05 1.00 0.97 0.95 0.86 0.78 0.74 0.74 0.71 0.68 0.66 0.64 0.65 0.67 0.68 0.69 0.65 0.60 0.55 0.57
0.40 0.41 0.42 0.39 0.38 0.41 0.43 0.43 0.44 0.53 0.65 0.86 0.95 1.01 1.04 1.08 1.11 1.12 1.15 1.24 1.12 1.14 1.06 1.05 1.00 0.96 0.92 0.91 0.90 0.84 0.74 0.74 0.72 0.73 0.69 0.66 0.65 0.62 0.61 0.65 0.65 0.63 0.54
0.39 0.38 0.36 0.35 0.38 0.41 0.44 0.48 0.49 0.47 0.55 0.67 0.79 0.94 0.99 1.09 1.10 1.15 1.15 1.10 1.09 1.09 1.02 0.98 0.92 0.93 0.94 0.93 0.89 0.88 0.86 0.83 0.81 0.81 0.77 0.69 0.63 0.58 0.58 0.59 0.61 0.61 0.63
0.29 0.28 0.30 0.34 0.39 0.40 0.42 0.44 0.47 0.48 0.50 0.56 0.64 0.73 0.88 0.92 1.01 1.05 1.07 1.09 1.05 1.04 0.98 0.96 0.93 0.91 0.88 0.90 0.86 0.83 0.83 0.83 0.81 0.78 0.74 0.72 0.73 0.73 0.74 0.74 0.74 0.72 0.69
0.26 0.26 0.28 0.31 0.36 0.39 0.40 0.43 0.48 0.48 0.52 0.55 0.56 0.59 0.72 0.79 0.85 0.93 0.97 0.98 0.94 0.92 0.96 0.95 0.90 0.89 0.87 0.88 0.86 0.83 0.81 0.76 0.76 0.74 0.74 0.72 0.73 0.71 0.72 0.73 0.70 0.69 0.67
0.19 0.20 0.23 0.25 0.30 0.38 0.42 0.45 0.49 0.54 0.58 0.57 0.59 0.58 0.61 0.68 0.75 0.79 0.88 0.89 0.89 0.90 0.89 0.90 0.88 0.87 0.85 0.85 0.82 0.80 0.76 0.75 0.75 0.73 0.72 0.72 0.72 0.70 0.69 0.65 0.60 0.57 0.51
0.16 0.22 0.24 0.22 0.25 0.34 0.42 0.46 0.51 0.55 0.62 0.62 0.63 0.62 0.64 0.67 0.75 0.79 0.82 0.83 0.85 0.83 0.84 0.83 0.82 0.82 0.81 0.79 0.76 0.73 0.70 0.70 0.70 0.69 0.71 0.70 0.66 0.59 0.54 0.51 0.49 0.49 0.47
0.20 0.24 0.24 0.27 0.26 0.31 0.38 0.49 0.54 0.56 0.65 0.65 0.64 0.64 0.66 0.68 0.71 0.74 0.77 0.77 0.78 0.81 0.80 0.78 0.77 0.76 0.73 0.71 0.68 0.67 0.66 0.63 0.62 0.63 0.61 0.60 0.57 0.56 0.55 0.52 0.49 0.44 0.41
0.24 0.27 0.32 0.33 0.31 0.36 0.43 0.51 0.55 0.57 0.62 0.65 0.63 0.65 0.66 0.67 0.69 0.69 0.67 0.67 0.67 0.69 0.70 0.71 0.70 0.65 0.65 0.67 0.65 0.63 0.60 0.57 0.54 0.48 0.47 0.49 0.52 0.53 0.50 0.45 0.40 0.36 0.30
0.29 0.33 0.37 0.39 0.37 0.40 0.48 0.52 0.58 0.62 0.63 0.64 0.63 0.62 0.62 0.63 0.63 0.65 0.64 0.64 0.66 0.66 0.65 0.65 0.64 0.61 0.62 0.62 0.61 0.58 0.54 0.49 0.47 0.47 0.48 0.48 0.47 0.45 0.41 0.37 0.34 0.31 0.30
0.33 0.37 0.43 0.44 0.43 0.49 0.53 0.60 0.63 0.65 0.60 0.57 0.57 0.58 0.58 0.58 0.59 0.59 0.59 0.60 0.61 0.61 0.61 0.60 0.59 0.58 0.58 0.58 0.56 0.53 0.52 0.51 0.50 0.46 0.43 0.40 0.36 0.33 0.31 0.29 0.26 0.24 0.24
0.42 0.46 0.52 0.54 0.54 0.56 0.61 0.62 0.59 0.55 0.61 0.56 0.53 0.53 0.53 0.51 0.52 0.52 0.52 0.53 0.52 0.53 0.54 0.54 0.55 0.55 0.54 0.55 0.54 0.52 0.50 0.48 0.45 0.43 0.40 0.38 0.32 0.29 0.27 0.27 0.26 0.25 0.24
0.47 0.52 0.56 0.62 0.60 0.58 0.57 0.54 0.56 0.51 0.48 0.48 0.46 0.47 0.48 0.45 0.43 0.45 0.47 0.49 0.49 0.49 0.49 0.48 0.50 0.51 0.51 0.50 0.51 0.49 0.47 0.44 0.42 0.40 0.37 0.35 0.30 0.28 0.25 0.25 0.26 0.24 0.24
0.46 0.53 0.57 0.53 0.54 0.44 0.53 0.50 0.49 0.44 0.45 0.44 0.44 0.43 0.43 0.42 0.44 0.44 0.44 0.45 0.46 0.47 0.46 0.46 0.47 0.47 0.49 0.49 0.48 0.47 0.45 0.40 0.39 0.34 0.32 0.31 0.30 0.30 0.27 0.26 0.24 0.22 0.21
0.46 0.53 0.56 0.54 0.49 0.45 0.41 0.35 0.31 0.35 0.38 0.41 0.40 0.39 0.40 0.40 0.41 0.42 0.44 0.43 0.43 0.42 0.44 0.45 0.44 0.46 0.47 0.48 0.47 0.46 0.43 0.42 0.39 0.34 0.32 0.30 0.28 0.27 0.24 0.24 0.23 0.22 0.21
0.48 0.53 0.53 0.49 0.38 0.29 0.28 0.26 0.29 0.34 0.36 0.35 0.35 0.36 0.39 0.41 0.45 0.45 0.45 0.44 0.43 0.41 0.41 0.43 0.43 0.43 0.45 0.46 0.47 0.46 0.44 0.41 0.36 0.35 0.34 0.34 0.30 0.26 0.23 0.22 0.22 0.21 0.20
0.52 0.57 0.52 0.39 0.23 0.27 0.26 0.27 0.29 0.32 0.32 0.32 0.34 0.37 0.39 0.39 0.45 0.46 0.46 0.45 0.44 0.42 0.41 0.42 0.42 0.42 0.42 0.43 0.44 0.44 0.41 0.37 0.33 0.30 0.31 0.30 0.28 0.26 0.24 0.23 0.22 0.20 0.19
0.44 0.50 0.47 0.39 0.21 0.23 0.23 0.26 0.28 0.29 0.28 0.30 0.34 0.37 0.39 0.38 0.43 0.46 0.46 0.45 0.47 0.45 0.42 0.42 0.41 0.40 0.39 0.41 0.42 0.41 0.36 0.30 0.28 0.29 0.30 0.27 0.26 0.23 0.21 0.20 0.20 0.19 0.19
0.39 0.50 0.47 0.39 0.31 0.27 0.28 0.29 0.30 0.30 0.28 0.29 0.33 0.35 0.36 0.36 0.41 0.44 0.44 0.47 0.46 0.46 0.46 0.46 0.44 0.43 0.43 0.41 0.39 0.36 0.33 0.32 0.32 0.29 0.25 0.23 0.21 0.18 0.18 0.18 0.18 0.19 0.19

GFSMW_prec_pwat_204.txt.gz
Precipitable_Water
0.56 0.60 0.65 0.75 0.80 0.91 0.97 1.05 1.07 1.12 1.21 1.16 1.10 1.10 1.07 1.16 1.19 1.21 1.21 1.23 1.25 1.21 1.12 1.01 0.85 0.75 0.69 0.63 0.61 0.61 0.60 0.64 0.68 0.64 0.64 0.65 0.66 0.64 0.64 0.66 0.64 0.63 0.64
0.52 0.56 0.59 0.64 0.70 0.79 0.87 0.90 0.98 1.07 1.14 1.19 1.18 1.19 1.19 1.18 1.20 1.24 1.24 1.23 1.23 1.21 1.14 1.02 0.89 0.78 0.69 0.64 0.61 0.60 0.61 0.63 0.68 0.60 0.60 0.52 0.56 0.61 0.65 0.67 0.67 0.66 0.66
0.50 0.55 0.58 0.60 0.64 0.66 0.74 0.80 0.87 0.94 1.02 1.08 1.16 1.12 1.15 1.16 1.12 1.17 1.20 1.25 1.29 1.25 1.17 1.05 0.96 0.86 0.77 0.67 0.64 0.63 0.61 0.56 0.65 0.65 0.56 0.49 0.46 0.53 0.61 0.64 0.67 0.67 0.66
0.52 0.53 0.54 0.54 0.56 0.60 0.68 0.72 0.80 0.88 0.96 1.10 1.13 1.06 0.97 0.93 1.03 1.12 1.24 1.26 1.32 1.28 1.22 1.12 1.03 0.97 0.88 0.78 0.73 0.70 0.67 0.63 0.57 0.65 0.66 0.63 0.57 0.48 0.47 0.60 0.64 0.69 0.67
0.51 0.50 0.47 0.48 0.51 0.53 0.54 0.59 0.66 0.73 0.93 1.07 1.07 1.07 1.06 1.11 1.11 1.10 1.13 1.20 1.26 1.29 1.21 1.14 1.09 1.05 1.01 0.95 0.85 0.75 0.69 0.69 0.63 0.62 0.62 0.64 0.61 0.58 0.52 0.48 0.54 0.63 0.67
0.51 0.48 0.49 0.48 0.44 0.46 0.47 0.49 0.51 0.58 0.69 0.81 0.97 1.00 1.00 1.05 1.06 1.08 1.07 1.11 1.19 1.24 1.25 1.25 1.21 1.16 1.10 1.03 0.97 0.86 0.74 0.70 0.71 0.68 0.65 0.63 0.60 0.57 0.56 0.54 0.56 0.57 0.63
0.47 0.45 0.44 0.44 0.44 0.44 0.45 0.45 0.46 0.47 0.57 0.69 0.76 0.81 0.90 0.92 0.90 0.97 1.02 1.03 1.07 1.10 1.13 1.18 1.17 1.15 1.12 1.09 1.02 0.93 0.83 0.77 0.74 0.72 0.69 0.70 0.69 0.68 0.65 0.62 0.60 0.58 0.62
0.43 0.41 0.41 0.40 0.41 0.42 0.43 0.44 0.41 0.40 0.47 0.53 0.61 0.74 0.81 0.79 0.86 0.88 0.91 0.96 0.98 1.01 1.07 1.08 1.09 1.11 1.10 1.10 1.08 1.01 0.91 0.86 0.77 0.75 0.76 0.75 0.74 0.74 0.71 0.68 0.64 0.58 0.58
0.39 0.37 0.37 0.37 0.35 0.36 0.37 0.38 0.38 0.38 0.42 0.46 0.55 0.62 0.72 0.76 0.80 0.84 0.94 0.97 1.00 1.00 1.05 1.08 1.10 1.12 1.08 1.07 1.03 0.98 0.94 0.90 0.84 0.77 0.74 0.71 0.69 0.74 0.75 0.72 0.71 0.63 0.54
0.35 0.34 0.34 0.34 0.34 0.35 0.35 0.37 0.41 0.41 0.44 0.47 0.48 0.53 0.65 0.75 0.80 0.82 0.82 0.92 0.95 0.98 0.97 1.05 1.08 1.10 1.03 1.03 0.99 0.93 0.90 0.86 0.83 0.81 0.79 0.77 0.79 0.75 0.71 0.72 0.72 0.71 0.64
0.32 0.30 0.29 0.28 0.27 0.25 0.25 0.29 0.36 0.41 0.45 0.48 0.48 0.49 0.52 0.60 0.71 0.81 0.83 0.86 0.94 1.00 0.91 0.95 0.95 0.99 0.99 0.98 0.94 0.90 0.89 0.88 0.87 0.87 0.83 0.80 0.80 0.76 0.74 0.74 0.72 0.70 0.69
0.24 0.23 0.22 0.22 0.22 0.26 0.23 0.26 0.29 0.39 0.46 0.49 0.51 0.50 0.52 0.56 0.60 0.66 0.73 0.82 0.87 0.91 0.88 0.91 0.94 0.94 0.94 0.93 0.91 0.87 0.86 0.84 0.82 0.83 0.80 0.78 0.76 0.74 0.75 0.73 0.70 0.68 0.69
0.21 0.21 0.20 0.20 0.23 0.25 0.26 0.26 0.31 0.38 0.49 0.54 0.53 0.54 0.55 0.57 0.61 0.64 0.69 0.74 0.76 0.83 0.84 0.85 0.87 0.87 0.89 0.86 0.86 0.85 0.81 0.78 0.76 0.77 0.76 0.74 0.72 0.69 0.71 0.72 0.70 0.71 0.71
0.20 0.18 0.17 0.20 0.24 0.27 0.30 0.32 0.32 0.42 0.50 0.53 0.53 0.54 0.55 0.60 0.63 0.67 0.69 0.71 0.74 0.72 0.79 0.77 0.79 0.81 0.83 0.84 0.81 0.80 0.76 0.74 0.75 0.75 0.73 0.72 0.70 0.69 0.67 0.67 0.66 0.65 0.62
0.18 0.19 0.21 0.24 0.27 0.30 0.34 0.35 0.38 0.45 0.52 0.54 0.57 0.57 0.59 0.62 0.66 0.67 0.69 0.73 0.72 0.74 0.75 0.75 0.77 0.76 0.78 0.78 0.75 0.74 0.72 0.71 0.69 0.68 0.67 0.68 0.67 0.64 0.60 0.56 0.54 0.53 0.50
0.22 0.26 0.30 0.32 0.33 0.37 0.41 0.38 0.42 0.49 0.56 0.59 0.57 0.58 0.59 0.64 0.66 0.66 0.67 0.69 0.68 0.69 0.69 0.69 0.71 0.71 0.72 0.72 0.71 0.70 0.68 0.67 0.63 0.59 0.58 0.58 0.55 0.52 0.49 0.47 0.48 0.48 0.45
0.25 0.28 0.31 0.36 0.39 0.44 0.47 0.45 0.46 0.55 0.59 0.59 0.59 0.60 0.63 0.66 0.65 0.67 0.65 0.63 0.65 0.66 0.65 0.66 0.67 0.65 0.67 0.67 0.67 0.66 0.64 0.60 0.57 0.54 0.50 0.46 0.47 0.49 0.46 0.44 0.41 0.39 0.37
0.27 0.30 0.35 0.40 0.47 0.49 0.50 0.51 0.55 0.58 0.58 0.59 0.60 0.61 0.60 0.58 0.60 0.61 0.61 0.63 0.63 0.63 0.62 0.62 0.63 0.62 0.62 0.63 0.63 0.62 0.58 0.54 0.50 0.47 0.46 0.47 0.46 0.44 0.41 0.37 0.33 0.30 0.29
0.34 0.36 0.41 0.45 0.52 0.56 0.58 0.59 0.59 0.61 0.58 0.56 0.60 0.56 0.55 0.53 0.51 0.48 0.50 0.53 0.55 0.55 0.55 0.56 0.57 0.57 0.57 0.58 0.57 0.56 0.53 0.50 0.50 0.49 0.46 0.42 0.39 0.37 0.34 0.27 0.26 0.24 0.24
0.33 0.37 0.42 0.47 0.54 0.61 0.60 0.58 0.61 0.58 0.54 0.57 0.58 0.52 0.49 0.47 0.43 0.43 0.44 0.47 0.48 0.49 0.50 0.49 0.50 0.51 0.51 0.53 0.52 0.51 0.49 0.46 0.44 0.43 0.42 0.39 0.36 0.34 0.31 0.27 0.25 0.23 0.26
0.31 0.37 0.45 0.46 0.53 0.61 0.55 0.53 0.52 0.55 0.53 0.53 0.50 0.47 0.46 0.45 0.44 0.43 0.43 0.43 0.43 0.43 0.44 0.44 0.46 0.47 0.47 0.47 0.48 0.48 0.45 0.42 0.41 0.40 0.37 0.34 0.32 0.30 0.28 0.26 0.25 0.25 0.26
0.28 0.33 0.38 0.44 0.55 0.57 0.50 0.45 0.44 0.47 0.49 0.45 0.44 0.45 0.43 0.42 0.43 0.43 0.44 0.45 0.45 0.42 0.41 0.40 0.42 0.43 0.45 0.46 0.46 0.45 0.44 0.43 0.39 0.34 0.32 0.31 0.30 0.28 0.26 0.28 0.29 0.27 0.25
0.30 0.33 0.36 0.49 0.54 0.56 0.47 0.38 0.33 0.35 0.36 0.36 0.36 0.37 0.38 0.39 0.40 0.39 0.41 0.41 0.42 0.41 0.41 0.40 0.40 0.41 0.43 0.45 0.46 0.45 0.44 0.40 0.40 0.36 0.33 0.32 0.31 0.27 0.26 0.28 0.27 0.26 0.25
0.29 0.35 0.36 0.48 0.52 0.40 0.36 0.32 0.30 0.33 0.31 0.29 0.31 0.33 0.33 0.36 0.39 0.41 0.42 0.41 0.40 0.41 0.40 0.41 0.39 0.39 0.39 0.42 0.44 0.44 0.44 0.44 0.40 0.37 0.36 0.35 0.33 0.29 0.27 0.26 0.24 0.23 0.23
0.30 0.35 0.38 0.42 0.41 0.38 0.33 0.34 0.32 0.29 0.28 0.29 0.29 0.31 0.34 0.35 0.37 0.40 0.41 0.41 0.44 0.45 0.41 0.41 0.41 0.39 0.38 0.41 0.44 0.44 0.42 0.40 0.37 0.34 0.31 0.29 0.28 0.27 0.28 0.26 0.24 0.23 0.22
0.30 0.33 0.36 0.43 0.44 0.39 0.34 0.34 0.36 0.34 0.29 0.27 0.29 0.31 0.32 0.34 0.37 0.37 0.37 0.42 0.44 0.47 0.47 0.45 0.43 0.42 0.42 0.43 0.44 0.43 0.42 0.38 0.33 0.28 0.26 0.26 0.26 0.24 0.22 0.20 0.19 0.20 0.20

GFSMW_prec_pwat_210.txt.gz
Precipitable_Water
0.57 0.61 0.65 0.72 0.79 0.89 0.94 0.97 1.01 1.07 1.15 1.20 1.14 1.16 1.18 1.27 1.31 1.37 1.42 1.43 1.45 1.44 1.43 1.42 1.44 1.34 1.18 1.05 0.97 0.84 0.76 0.70 0.75 0.66 0.66 0.68 0.72 0.74 0.78 0.81 0.82 0.82 0.83
0.52 0.55 0.57 0.61 0.64 0.68 0.74 0.78 0.85 0.95 0.99 1.07 1.15 1.16 1.16 1.22 1.28 1.36 1.39 1.43 1.44 1.45 1.42 1.45 1.43 1.39 1.25 1.15 1.07 0.98 0.86 0.80 0.78 0.63 0.60 0.53 0.59 0.67 0.73 0.77 0.79 0.80 0.78
0.48 0.50 0.50 0.54 0.55 0.56 0.61 0.63 0.69 0.80 0.90 0.95 1.08 1.08 1.12 1.10 1.10 1.17 1.21 1.29 1.37 1.40 1.41 1.41 1.43 1.39 1.31 1.19 1.16 1.11 1.00 0.85 0.83 0.75 0.61 0.54 0.49 0.59 0.69 0.73 0.74 0.75 0.70
0.52 0.52 0.51 0.51 0.52 0.54 0.57 0.57 0.59 0.60 0.67 0.85 0.91 0.93 0.85 0.81 0.89 0.96 1.05 1.14 1.27 1.29 1.31 1.37 1.41 1.39 1.34 1.27 1.21 1.18 1.12 1.02 0.89 0.85 0.76 0.73 0.66 0.55 0.52 0.68 0.72 0.74 0.70
0.54 0.52 0.51 0.52 0.52 0.55 0.56 0.56 0.55 0.53 0.54 0.57 0.67 0.73 0.77 0.86 0.90 0.91 0.96 0.99 1.06 1.13 1.29 1.29 1.32 1.36 1.33 1.30 1.25 1.20 1.17 1.14 1.03 0.95 0.86 0.80 0.73 0.70 0.60 0.55 0.62 0.71 0.72
0.56 0.52 0.51 0.51 0.50 0.51 0.52 0.53 0.52 0.51 0.52 0.52 0.53 0.55 0.57 0.61 0.62 0.65 0.76 0.86 0.91 0.95 1.04 1.15 1.26 1.29 1.31 1.29 1.31 1.26 1.21 1.18 1.14 1.07 1.00 0.87 0.76 0.72 0.68 0.63 0.63 0.61 0.66
0.49 0.47 0.46 0.46 0.46 0.47 0.49 0.49 0.49 0.48 0.52 0.52 0.51 0.51 0.51 0.53 0.54 0.58 0.62 0.66 0.74 0.78 0.82 0.94 1.00 1.07 1.22 1.28 1.29 1.26 1.23 1.20 1.11 1.09 1.05 1.00 0.91 0.87 0.82 0.73 0.66 0.61 0.64
0.47 0.46 0.46 0.47 0.46 0.46 0.46 0.46 0.44 0.43 0.44 0.46 0.48 0.52 0.53 0.51 0.50 0.51 0.55 0.59 0.63 0.71 0.80 0.83 0.88 0.95 1.02 1.08 1.17 1.19 1.20 1.20 1.12 1.04 1.01 0.95 0.95 0.92 0.85 0.77 0.70 0.62 0.64
0.46 0.46 0.46 0.45 0.44 0.43 0.44 0.45 0.46 0.46 0.45 0.44 0.47 0.46 0.48 0.51 0.51 0.52 0.55 0.56 0.59 0.63 0.65 0.70 0.78 0.82 0.90 0.93 0.94 1.01 1.04 1.05 1.07 0.99 0.95 0.89 0.87 0.86 0.85 0.84 0.82 0.77 0.66
0.44 0.44 0.44 0.44 0.44 0.44 0.43 0.45 0.44 0.41 0.41 0.43 0.45 0.43 0.41 0.44 0.50 0.52 0.50 0.51 0.53 0.57 0.59 0.63 0.66 0.71 0.74 0.82 0.86 0.91 0.94 0.98 0.98 0.98 0.94 0.91 0.88 0.85 0.88 0.90 0.94 0.88 0.80
0.43 0.44 0.45 0.45 0.45 0.44 0.41 0.39 0.36 0.35 0.34 0.38 0.41 0.42 0.41 0.41 0.44 0.49 0.51 0.52 0.54 0.54 0.54 0.57 0.60 0.65 0.70 0.75 0.80 0.85 0.90 0.92 0.93 0.96 0.95 0.92 0.91 0.92 0.95 0.95 0.93 0.87 0.82
0.45 0.46 0.46 0.43 0.41 0.38 0.35 0.34 0.35 0.35 0.37 0.40 0.42 0.43 0.44 0.44 0.43 0.46 0.51 0.54 0.53 0.56 0.56 0.57 0.59 0.62 0.65 0.73 0.74 0.84 0.87 0.88 0.90 0.95 0.94 0.91 0.91 0.89 0.93 0.86 0.83 0.79 0.78
0.43 0.42 0.41 0.38 0.35 0.35 0.35 0.36 0.38 0.40 0.41 0.45 0.46 0.44 0.46 0.45 0.45 0.48 0.53 0.55 0.56 0.57 0.59 0.61 0.61 0.62 0.66 0.69 0.77 0.76 0.81 0.85 0.89 0.92 0.94 0.91 0.87 0.83 0.83 0.83 0.81 0.81 0.80
0.39 0.37 0.36 0.36 0.37 0.36 0.36 0.37 0.39 0.42 0.45 0.47 0.46 0.47 0.50 0.48 0.50 0.54 0.55 0.57 0.58 0.59 0.60 0.63 0.63 0.64 0.65 0.70 0.72 0.71 0.79 0.83 0.84 0.86 0.87 0.85 0.82 0.81 0.80 0.79 0.78 0.78 0.75
0.36 0.35 0.35 0.35 0.34 0.34 0.35 0.37 0.39 0.44 0.48 0.46 0.47 0.50 0.52 0.54 0.54 0.56 0.58 0.60 0.61 0.61 0.62 0.62 0.65 0.64 0.64 0.67 0.66 0.64 0.73 0.73 0.77 0.78 0.79 0.79 0.78 0.77 0.76 0.74 0.73 0.72 0.70
0.34 0.35 0.33 0.32 0.32 0.34 0.35 0.38 0.41 0.43 0.48 0.47 0.48 0.51 0.54 0.55 0.55 0.57 0.59 0.60 0.62 0.64 0.64 0.64 0.63 0.62 0.63 0.62 0.66 0.66 0.63 0.68 0.69 0.70 0.69 0.71 0.71 0.71 0.71 0.71 0.71 0.70 0.65
0.34 0.31 0.30 0.30 0.31 0.32 0.37 0.39 0.43 0.46 0.48 0.49 0.51 0.53 0.55 0.56 0.58 0.59 0.59 0.60 0.61 0.63 0.62 0.63 0.63 0.60 0.61 0.63 0.62 0.63 0.64 0.64 0.63 0.64 0.64 0.63 0.64 0.65 0.65 0.64 0.65 0.64 0.64
0.30 0.29 0.30 0.31 0.31 0.33 0.35 0.43 0.47 0.46 0.48 0.52 0.55 0.58 0.58 0.58 0.60 0.60 0.60 0.57 0.57 0.55 0.54 0.56 0.58 0.58 0.61 0.62 0.62 0.61 0.60 0.60 0.59 0.60 0.61 0.61 0.59 0.59 0.58 0.56 0.55 0.54 0.54
0.29 0.29 0.30 0.30 0.31 0.32 0.36 0.41 0.46 0.48 0.49 0.52 0.57 0.60 0.61 0.60 0.61 0.58 0.53 0.50 0.46 0.45 0.46 0.49 0.50 0.51 0.55 0.57 0.60 0.60 0.58 0.56 0.55 0.56 0.57 0.57 0.55 0.55 0.54 0.51 0.49 0.48 0.48
0.28 0.28 0.29 0.30 0.29 0.31 0.35 0.39 0.45 0.49 0.49 0.56 0.62 0.65 0.63 0.62 0.55 0.51 0.46 0.44 0.42 0.42 0.43 0.42 0.44 0.44 0.44 0.47 0.50 0.53 0.52 0.51 0.51 0.51 0.51 0.52 0.51 0.49 0.47 0.45 0.43 0.41 0.40
0.30 0.32 0.31 0.31 0.30 0.31 0.33 0.35 0.43 0.50 0.58 0.63 0.65 0.64 0.63 0.57 0.51 0.45 0.42 0.40 0.40 0.41 0.40 0.41 0.43 0.43 0.44 0.43 0.44 0.45 0.46 0.47 0.46 0.46 0.47 0.48 0.45 0.43 0.41 0.38 0.36 0.33 0.33
0.32 0.33 0.32 0.32 0.34 0.33 0.32 0.32 0.40 0.54 0.60 0.64 0.62 0.61 0.56 0.50 0.46 0.41 0.40 0.39 0.40 0.40 0.40 0.39 0.39 0.42 0.44 0.44 0.44 0.43 0.43 0.43 0.42 0.42 0.43 0.41 0.38 0.36 0.34 0.35 0.33 0.31 0.31
0.32 0.34 0.34 0.35 0.36 0.37 0.34 0.32 0.36 0.51 0.57 0.58 0.57 0.54 0.50 0.45 0.42 0.39 0.37 0.38 0.40 0.39 0.39 0.39 0.39 0.40 0.43 0.43 0.44 0.44 0.43 0.45 0.43 0.43 0.40 0.37 0.35 0.33 0.32 0.30 0.30 0.30 0.31
0.31 0.33 0.33 0.33 0.33 0.38 0.39 0.38 0.41 0.42 0.53 0.49 0.47 0.43 0.39 0.38 0.38 0.38 0.39 0.39 0.38 0.38 0.38 0.37 0.38 0.40 0.41 0.42 0.43 0.43 0.42 0.41 0.40 0.38 0.38 0.38 0.36 0.34 0.31 0.30 0.29 0.31 0.30
0.28 0.30 0.30 0.31 0.33 0.36 0.38 0.40 0.42 0.44 0.41 0.43 0.39 0.37 0.36 0.35 0.34 0.37 0.38 0.38 0.40 0.40 0.38 0.38 0.39 0.39 0.39 0.41 0.43 0.42 0.41 0.41 0.38 0.38 0.36 0.34 0.33 0.32 0.30 0.30 0.31 0.31 0.29
0.30 0.31 0.31 0.32 0.33 0.36 0.38 0.39 0.42 0.46 0.36 0.37 0.33 0.33 0.35 0.36 0.35 0.34 0.35 0.39 0.40 0.40 0.42 0.42 0.42 0.43 0.44 0.44 0.44 0.43 0.42 0.41 0.39 0.38 0.36 0.35 0.34 0.31 0.31 0.30 0.29 0.29 0.28